Lid_Strength_Index
9 9 8 8 8 8 8 7 7 7 7 6 6 6 5 4 3 3 3 4 4 3 2 2 2 2 4 4 3 3 5 6 11 10 9 9 9 9 8 7 7 7 8
9 9 9 9 8 8 8 8 7 7 7 6 6 6 5 4 4 3 4 4 4 4 3 2 3 4 5 5 5 4 5 7 9 11 10 11 10 10 10 10 9 9 9
9 9 9 9 9 8 8 8 8 8 7 6 6 6 5 4 4 4 3 4 3 4 4 2 4 4 5 6 6 5 5 7 8 10 11 10 11 11 12 12 12 12 11
9 10 9 9 9 9 8 8 8 8 7 7 6 6 6 5 4 4 4 4 3 4 4 4 3 4 4 5 6 6 6 8 9 10 11 12 12 12 12 13 14 13 13
9 9 9 9 9 9 9 8 8 8 7 7 6 6 6 5 5 4 4 4 4 4 4 4 5 6 8 6 5 6 6 8 9 10 11 12 13 14 14 13 14 14 14
9 9 9 10 10 9 9 9 9 8 7 7 6 6 6 6 8 8 6 4 4 4 5 5 5 10 8 8 8 7 6 6 8 9 10 11 12 12 13 14 14 15 15
10 10 10 10 10 10 9 9 8 8 7 6 5 5 6 5 8 9 10 5 4 4 5 5 7 7 9 6 8 8 9 8 8 7 9 10 12 12 13 14 14 14 15
10 10 10 10 10 9 9 8 8 7 7 6 6 5 5 6 9 9 10 4 4 5 5 5 6 6 6 7 7 7 7 8 8 7 7 9 10 11 12 12 14 15 15
11 10 10 10 10 9 9 8 8 7 7 6 6 6 6 6 9 10 9 6 6 6 6 5 6 8 10 9 8 9 10 10 9 9 9 9 10 11 11 14 15 16 17
11 11 10 9 9 9 9 9 9 8 8 9 7 7 10 6 10 10 9 7 7 8 8 7 12 7 11 10 8 10 11 11 11 12 11 11 11 11 12 12 14 14 16
12 11 10 10 9 9 9 10 10 9 10 9 10 10 9 9 8 9 9 7 8 11 11 12 11 10 10 10 9 10 10 12 11 12 13 12 12 12 13 12 13 12 14
13 13 13 12 11 11 11 11 11 10 10 11 11 12 11 10 11 9 9 9 8 11 11 11 11 11 10 10 10 10 11 12 12 13 13 14 14 13 13 12 12 12 12
13 13 13 14 14 13 12 12 12 11 11 11 12 11 11 12 10 10 9 9 10 11 12 11 11 11 11 10 10 11 13 12 12 12 12 12 13 12 13 14 15 14 14
14 14 14 13 13 13 12 12 11 10 11 12 12 11 11 11 10 11 12 11 11 12 12 12 11 11 11 12 13 12 13 12 12 11 12 12 13 13 13 13 15 16 14
14 14 14 13 13 13 13 11 11 11 11 11 11 12 12 11 11 10 11 12 12 12 13 14 14 14 13 14 14 13 14 13 13 13 13 14 14 14 14 14 13 13 13
15 14 13 13 13 13 12 12 10 10 10 9 9 10 11 10 9 9 9 9 10 11 13 13 13 13 13 13 13 14 14 14 13 13 13 13 14 14 14 14 14 14 14
15 15 14 14 13 13 12 11 11 11 10 9 9 9 9 9 9 9 9 9 9 10 12 13 13 13 13 13 13 13 13 13 13 13 13 13 13 14 14 14 14 14 14
16 16 14 14 14 13 13 12 12 11 11 11 10 10 10 9 9 9 9 10 11 11 12 12 12 13 13 13 13 13 13 13 13 13 13 13 13 14 14 14 14 14 14
16 15 14 14 13 13 13 13 12 12 12 12 11 10 11 10 9 9 8 11 11 11 12 12 12 13 13 13 13 13 13 13 13 13 13 13 13 13 14 14 14 14 14
19 21 17 14 14 13 13 13 13 13 13 13 12 12 11 11 11 11 11 11 11 11 11 12 12 12 13 13 13 13 13 13 13 13 13 13 13 13 13 13 14 14 14
17 17 18 14 13 13 13 13 13 13 13 14 13 12 12 11 12 11 11 11 11 11 11 11 12 12 12 11 12 12 13 13 13 13 13 13 13 14 13 13 13 13 13
18 17 17 17 16 15 14 14 14 14 14 14 13 13 12 12 12 12 11 11 11 11 11 11 11 11 11 11 11 12 12 12 13 13 13 13 13 13 13 13 13 13 14
18 19 19 19 19 19 17 17 18 17 16 16 15 14 13 13 12 12 12 11 11 11 11 11 11 11 10 11 11 11 11 11 12 13 13 13 13 13 13 13 13 14 14
20 20 20 20 21 20 20 20 20 21 20 19 18 17 17 16 16 16 14 13 12 11 11 10 10 10 10 10 10 10 10 10 11 12 12 13 13 13 14 14 14 14 14
21 21 21 21 21 21 21 21 21 21 20 20 20 19 19 19 18 17 16 16 16 15 14 14 12 11 10 10 10 10 10 10 11 11 12 12 13 13 13 13 14 14 15
22 22 22 22 22 22 21 21 21 21 21 21 21 20 20 20 19 19 18 18 17 17 16 15 14 14 13 12 11 10 10 10 10 10 10 11 12 12 13 13 14 14 15